Location: ??? ????
(38.0580°N, 23.1536°E)
Time: 22:22:15
(UTC+00:00)

Cosmos 1553 Rocket - Pass Details

Date: 13 December 2025
Orbit: 942 x 1006 km, 82.9° (Epoch: 14 January)

Event Time Altitude Azimuth Distance (km) Brightness Sun altitude
Rises 17:04:11 0° 192° (SSW) 3,612 7.3 -22.1°
Reaches altitude 10° 17:06:40 10° 195° (SSW) 2,678 6.6 -22.6°
Maximum altitude 17:12:46 69° 278° (W) 1,033 4.2 -23.7°
Drops below altitude 10° 17:19:01 10° 2° (N) 2,738 6.2 -24.9°
Sets 17:21:35 0° 5° (N) 3,699 6.9 -25.4°
